When you browse on this site, cookies collect data to enhance your experience and personalize the content and advertising you see.
Visit our Privacy Policy to learn more. By continuing to use the site, you agree to this use of cookies and data.
  • In Hungary
  • List of Countries
  • For 7 days
  • Water Temperature
  • Weather Map
  • News
  • Weather Widgets
  • user-avatar
    Login

    Hourly Weather Korczyn

    Today, 15 September, Sunday

    Time Temperature Precipitation Wind Pressure Humidity
    00:00 +11°C° 0 mm 1 mps 761 mmHg 72%
    01:00 +11°C° 0 mm 1 mps 760 mmHg 72%
    02:00 +10°C° 0 mm 2 mps 760 mmHg 71%
    03:00 +9°C° 0 mm 2 mps 759 mmHg 70%
    04:00 +9°C° 0 mm 3 mps 759 mmHg 69%
    05:00 +10°C° 0 mm 4 mps 758 mmHg 69%
    06:00 +11°C° 0 mm 4 mps 757 mmHg 68%
    07:00 +12°C° 0 mm 5 mps 757 mmHg 67%
    08:00 +13°C° 0 mm 5 mps 756 mmHg 62%
    09:00 +15°C° 0 mm 6 mps 756 mmHg 56%
    10:00 +17°C° 0 mm 6 mps 755 mmHg 50%
    11:00 +19°C° 0 mm 6 mps 755 mmHg 48%
    12:00 +20°C° 0 mm 7 mps 754 mmHg 47%
    13:00 +21°C° 0 mm 7 mps 753 mmHg 46%
    14:00 +21°C° 0 mm 7 mps 753 mmHg 47%
    15:00 +22°C° 0 mm 6 mps 752 mmHg 49%
    16:00 +22°C° 0 mm 6 mps 752 mmHg 51%
    17:00 +20°C° 0 mm 5 mps 751 mmHg 52%
    18:00 +19°C° 0 mm 5 mps 751 mmHg 54%
    19:00 +17°C° 0 mm 5 mps 751 mmHg 55%
    20:00 +17°C° 0 mm 5 mps 751 mmHg 52%
    21:00 +17°C° 0 mm 5 mps 751 mmHg 50%
    22:00 +17°C° 0 mm 6 mps 751 mmHg 47%
    23:00 +16°C° 0 mm 6 mps 751 mmHg 51%

    Tomorrow, 16 September, Monday

    Time Temperature Precipitation Wind Pressure Humidity
    00:00 +16°C° 0 mm 5 mps 751 mmHg 54%
    01:00 +16°C° 0 mm 5 mps 751 mmHg 57%
    02:00 +15°C° 0 mm 5 mps 751 mmHg 63%
    03:00 +15°C° 0 mm 5 mps 751 mmHg 70%
    04:00 +14°C° 0 mm 5 mps 751 mmHg 76%
    05:00 +13°C° 0 mm 5 mps 751 mmHg 72%
    06:00 +13°C° 0 mm 6 mps 751 mmHg 69%
    07:00 +13°C° 0 mm 6 mps 751 mmHg 65%
    08:00 +13°C° 0 mm 6 mps 751 mmHg 64%
    09:00 +14°C° 0 mm 6 mps 751 mmHg 62%
    10:00 +14°C° 0 mm 6 mps 751 mmHg 60%
    11:00 +15°C° 0 mm 6 mps 751 mmHg 56%
    12:00 +16°C° 0 mm 6 mps 751 mmHg 53%
    13:00 +17°C° 0 mm 6 mps 751 mmHg 49%
    14:00 +16°C° 0 mm 6 mps 751 mmHg 50%
    15:00 +16°C° 0 mm 6 mps 750 mmHg 50%
    16:00 +16°C° 0 mm 5 mps 750 mmHg 51%
    17:00 +15°C° 0.1 mm 5 mps 750 mmHg 59%
    18:00 +14°C° 0.1 mm 5 mps 750 mmHg 67%
    19:00 +12°C° 0.1 mm 4 mps 749 mmHg 75%
    20:00 +12°C° 0.1 mm 4 mps 749 mmHg 77%
    21:00 +12°C° 0.1 mm 4 mps 749 mmHg 79%
    22:00 +12°C° 0.1 mm 4 mps 749 mmHg 81%
    23:00 +11°C° 0 mm 4 mps 749 mmHg 79%

    Day after tomorrow, 17 September, Tuesday

    Time Temperature Precipitation Wind Pressure Humidity
    00:00 +11°C° 0 mm 4 mps 749 mmHg 76%
    01:00 +10°C° 0 mm 4 mps 749 mmHg 74%
    02:00 +9°C° 0 mm 5 mps 749 mmHg 74%
    03:00 +9°C° 0 mm 5 mps 749 mmHg 75%
    04:00 +8°C° 0 mm 5 mps 749 mmHg 76%
    05:00 +8°C° 0 mm 6 mps 749 mmHg 76%
    06:00 +9°C° 0 mm 6 mps 749 mmHg 76%
    07:00 +9°C° 0 mm 7 mps 749 mmHg 76%
    08:00 +10°C° 0 mm 7 mps 748 mmHg 70%
    09:00 +11°C° 0 mm 7 mps 748 mmHg 64%
    10:00 +12°C° 0 mm 8 mps 748 mmHg 58%
    11:00 +13°C° 0.2 mm 9 mps 748 mmHg 58%
    12:00 +13°C° 0.2 mm 9 mps 747 mmHg 57%
    13:00 +13°C° 0.2 mm 10 mps 747 mmHg 56%
    14:00 +13°C° 0.3 mm 10 mps 747 mmHg 57%
    15:00 +12°C° 0.3 mm 10 mps 746 mmHg 57%
    16:00 +12°C° 0.3 mm 9 mps 746 mmHg 58%
    17:00 +11°C° 0.1 mm 8 mps 746 mmHg 60%
    18:00 +10°C° 0.1 mm 7 mps 746 mmHg 63%
    19:00 +9°C° 0.1 mm 6 mps 746 mmHg 65%
    20:00 +8°C° 0 mm 7 mps 746 mmHg 67%
    21:00 +8°C° 0 mm 7 mps 746 mmHg 70%
    22:00 +7°C° 0 mm 8 mps 746 mmHg 72%
    23:00 +6°C° 0 mm 8 mps 747 mmHg 72%

    18 September, Wednesday

    Time Temperature Precipitation Wind Pressure Humidity
    00:00 +6°C° 0 mm 8 mps 747 mmHg 71%
    01:00 +6°C° 0 mm 8 mps 747 mmHg 71%
    02:00 +6°C° 0 mm 8 mps 747 mmHg 72%
    03:00 +5°C° 0 mm 8 mps 748 mmHg 73%
    04:00 +5°C° 0 mm 8 mps 748 mmHg 74%
    05:00 +6°C° 0 mm 8 mps 748 mmHg 74%
    06:00 +6°C° 0 mm 8 mps 749 mmHg 73%
    07:00 +6°C° 0 mm 8 mps 750 mmHg 72%
    08:00 +9°C° 0 mm 8 mps 750 mmHg 67%
    09:00 +10°C° 0 mm 8 mps 751 mmHg 62%
    10:00 +11°C° 0 mm 8 mps 751 mmHg 58%
    11:00 +12°C° 0.1 mm 8 mps 751 mmHg 55%
    12:00 +13°C° 0.1 mm 8 mps 751 mmHg 52%
    13:00 +13°C° 0.1 mm 8 mps 751 mmHg 49%
    14:00 +14°C° 0.2 mm 7 mps 751 mmHg 50%
    15:00 +14°C° 0.2 mm 7 mps 752 mmHg 50%
    16:00 +14°C° 0.2 mm 7 mps 752 mmHg 51%
    17:00 +11°C° 0 mm 6 mps 752 mmHg 57%
    18:00 +11°C° 0 mm 4 mps 753 mmHg 63%
    19:00 +9°C° 0 mm 3 mps 753 mmHg 69%
    20:00 +9°C° 0 mm 3 mps 753 mmHg 71%
    21:00 +8°C° 0 mm 3 mps 754 mmHg 72%
    22:00 +7°C° 0 mm 3 mps 754 mmHg 74%
    23:00 +7°C° 0 mm 3 mps 754 mmHg 75%

    19 September, Thursday

    Time Temperature Precipitation Wind Pressure Humidity
    00:00 +5°C° 0 mm 3 mps 754 mmHg 76%
    01:00 +5°C° 0 mm 3 mps 755 mmHg 77%
    02:00 +5°C° 0 mm 3 mps 755 mmHg 80%
    03:00 +5°C° 0 mm 3 mps 755 mmHg 83%
    04:00 +5°C° 0 mm 3 mps 755 mmHg 86%
    05:00 +5°C° 0 mm 4 mps 755 mmHg 84%
    06:00 +6°C° 0 mm 4 mps 755 mmHg 83%
    07:00 +7°C° 0 mm 5 mps 755 mmHg 81%
    08:00 +9°C° 0.1 mm 5 mps 756 mmHg 73%
    09:00 +10°C° 0.1 mm 5 mps 756 mmHg 65%
    10:00 +13°C° 0.1 mm 5 mps 756 mmHg 57%
    11:00 +14°C° 0.2 mm 5 mps 756 mmHg 53%
    12:00 +14°C° 0.2 mm 5 mps 756 mmHg 49%
    13:00 +15°C° 0.2 mm 5 mps 756 mmHg 46%
    14:00 +15°C° 0 mm 5 mps 756 mmHg 46%
    15:00 +14°C° 0 mm 5 mps 756 mmHg 45%
    16:00 +14°C° 0 mm 5 mps 756 mmHg 45%
    17:00 +13°C° 0.1 mm 5 mps 756 mmHg 51%
    18:00 +11°C° 0.1 mm 4 mps 757 mmHg 58%
    19:00 +9°C° 0.1 mm 3 mps 757 mmHg 64%
    20:00 +8°C° 0 mm 3 mps 758 mmHg 64%
    21:00 +7°C° 0 mm 3 mps 758 mmHg 64%
    22:00 +6°C° 0 mm 2 mps 759 mmHg 65%
    23:00 +5°C° 0 mm 3 mps 759 mmHg 67%

    20 September, Friday

    Time Temperature Precipitation Wind Pressure Humidity
    00:00 +5°C° 0 mm 3 mps 759 mmHg 70%
    01:00 +4°C° 0 mm 3 mps 759 mmHg 72%
    02:00 +4°C° 0 mm 3 mps 759 mmHg 73%
    03:00 +4°C° 0 mm 3 mps 759 mmHg 73%
    04:00 +4°C° 0 mm 3 mps 759 mmHg 74%
    05:00 +4°C° 0 mm 3 mps 759 mmHg 71%
    06:00 +5°C° 0 mm 3 mps 759 mmHg 69%
    07:00 +7°C° 0 mm 3 mps 760 mmHg 67%
    08:00 +8°C° 0 mm 3 mps 760 mmHg 61%
    09:00 +10°C° 0 mm 4 mps 760 mmHg 55%
    10:00 +12°C° 0 mm 4 mps 760 mmHg 49%
    11:00 +13°C° 0 mm 4 mps 760 mmHg 46%
    12:00 +13°C° 0 mm 4 mps 760 mmHg 43%
    13:00 +14°C° 0 mm 4 mps 760 mmHg 40%
    14:00 +14°C° 0 mm 4 mps 759 mmHg 41%
    15:00 +14°C° 0 mm 4 mps 759 mmHg 42%
    16:00 +14°C° 0 mm 3 mps 759 mmHg 42%
    17:00 +12°C° 0 mm 3 mps 759 mmHg 47%
    18:00 +11°C° 0 mm 3 mps 759 mmHg 51%
    19:00 +9°C° 0 mm 2 mps 759 mmHg 56%
    20:00 +9°C° 0 mm 2 mps 759 mmHg 58%
    21:00 +9°C° 0 mm 2 mps 759 mmHg 61%
    22:00 +8°C° 0 mm 2 mps 759 mmHg 63%
    23:00 +8°C° 0 mm 3 mps 759 mmHg 65%
    Show more